This demonstration page uses our WeatherBlox Daily Observations layout. Learn more.

Left ArrowRight Arrow

Hourly Observations for September 6, 2020

Temp ( °F °C ) Dew Point ( °F °C ) Humidity (%) Winds ( mph kmh ) Pressure ( in mb ) Visibility ( mi km ) Precip ( " mm )
12:59 am 00:59 Partly Cloudy 73 22.8 61 16.1 66 66 NE 6 9 30.21 1023 10 16 0.00 0.00
1:59 am 01:59 Partly Cloudy 70 21.1 61 16.1 73 73 E 3 6 30.20 1023 10 16 0.00 0.00
2:59 am 02:59 Partly Cloudy 73 22.8 61 16.1 66 66 ENE 7 11 30.19 1023 10 16 0.00 0.00
3:59 am 03:59 Mostly Clear 68 20 61 16.1 78 78 Calm 30.19 1022 10 16 0.00 0.00
4:59 am 04:59 Mostly Clear 66 18.9 61 16.1 84 84 Calm 30.19 1022 10 16 0.00 0.00
5:59 am 05:59 Partly Cloudy 65 18.3 60 15.6 84 84 Calm 30.19 1022 10 16 0.00 0.00
6:59 am 06:59 Partly Cloudy 71 21.7 58 14.4 63 63 ENE 6 9 30.20 1023 10 16 0.00 0.00
7:59 am 07:59 Partly Cloudy 75 23.9 58 14.4 55 55 NE 9 15 30.20 1023 10 16 0.00 0.00
8:59 am 08:59 Mostly Sunny 77 25 58 14.4 52 52 ENE 12 19 30.20 1023 10 16 0.00 0.00
9:59 am 09:59 Mostly Sunny 78 25.6 58 14.4 50 50 E 13 20 30.20 1023 10 16 0.00 0.00
10:59 am 10:59 Partly Cloudy 79 26.1 59 15 50 50 E 10 17 30.19 1023 10 16 0.00 0.00
11:59 am 11:59 Partly Cloudy 79 26.1 59 15 50 50 ENE 10 17 30.22 1023 10 16 0.00 0.00
12:59 pm 12:59 Partly Cloudy 81 27.2 58 14.4 45 45 NNE 13 20 30.23 1024 10 16 0.00 0.00
1:59 pm 13:59 Mostly Sunny 81 27.2 58 14.4 45 45 E 10 17 30.21 1023 10 16 0.00 0.00
2:59 pm 14:59 Mostly Sunny 80 26.7 58 14.4 47 47 ENE 10 17 30.18 1022 10 16 0.00 0.00
3:59 pm 15:59 Sunny 80 26.7 59 15 49 49 E 9 15 30.16 1021 10 16 0.00 0.00
4:59 pm 16:59 Mostly Sunny 79 26.1 57 13.9 47 47 ENE 13 20 30.16 1021 10 16 0.00 0.00
5:59 pm 17:59 Mostly Sunny 78 25.6 59 15 52 52 ENE 9 15 30.16 1022 10 16 0.00 0.00
6:59 pm 18:59 Mostly Sunny 76 24.4 59 15 56 56 E 8 13 30.16 1021 10 16 0.00 0.00
7:59 pm 19:59 Mostly Clear 74 23.3 58 14.4 57 57 E 5 7 30.15 1021 10 16 0.00 0.00
8:59 pm 20:59 Clear 68 20 59 15 73 73 Calm 30.15 1021 10 16 0.00 0.00
9:59 pm 21:59 Clear 66 18.9 59 15 78 78 Calm 30.14 1021 10 16 0.00 0.00
10:59 pm 22:59 Clear 65 18.3 58 14.4 78 78 Calm 30.14 1021 10 16 0.00 0.00
11:59 pm 23:59 Clear 65 18.3 58 14.4 78 78 Calm 30.14 1021 10 16 0.00 0.00

Powered by AerisWeather